Strona główna
METAR-TAF:

METAR-TAF

Lotnisko :

Hallock Municipal Airport

Hallock, Minnesota, Stany Zjednoczone

Szerokość geograficzna: 48-45-10N, Długość geograficzna: 096-56-35W, wysokość: 250 m

Aktualna obserwacja pogody

Raport powstał 17 minut temu, godzina 18:35 UTC
Wiatr 3 kt od wschód
Temperatura 12°C
Wilgotność 50%
Ciśnienie 1006 hPa
Widzialność: 16.1 km
bezchmurnie

METAR: KHCO 111835Z AUTO 09003KT 10SM CLR 12/02 A2970 RMK AO2

czas: 13:52 (18:52 UTC)


TAF: brakujący

Obserwacja i prognoza pogody dla ponad 4000 lotnisk (raport METAR i TAF).

Dostępne stacje oznaczono żółtymi i czerwonymi punktami na mapie.

Najedź kursorem aby zobaczyć nazwę stacji.

Kliknij aby zobaczyć obserwacje i prognozy pogody.

Aby zmienić mapę: kliknij na zielony przycisk z czarnym krzyżykiem, aby powiększyć; na zielony przycisk z myślnikiem, aby pomniejszyć; na zielone strzałki, aby przejść do map sąsiednich.


METAR-TAF: